Detroit Lakes, MN

10:04 AM CDT on May 28, 2017 (GMT -0500)
Detroit Lakes

Weather History for KDTL - May, 2013

Change the Weather History Date:

Friday, May 17, 2013

  Actual Average Record
Temperature  
Mean Temperature 63 °F -  
Max Temperature 69 °F 72 °F 90 °F (1987)
Min Temperature 57 °F 43 °F 25 °F (1973)
Degree Days  
Heating Degree Days 2    
Growing Degree Days 13 (Base 50)    
Moisture  
Dew Point 43 °F    
Average Humidity 50    
Maximum Humidity 82    
Minimum Humidity 32    
Precipitation  
Precipitation 0.00 in - - ()
Sea Level Pressure  
Sea Level Pressure 29.93 in    
Wind  
Wind Speed 11 mph (SE)    
Max Wind Speed 20 mph    
Max Gust Speed 25 mph    
Visibility 10 miles    
Events      
Averages and records for this station are not official NWS values.
T = Trace of Precipitation, MM = Missing Value Source: NWS Daily Summary

Daily Weather History Graph

Daily Weather History Graph

Search for Another Location

Airport or City:

Trip Planner

Search our weather history database for the weather conditions in past years. The results will help you decide how hot, cold, wet, or windy it might be!

Date:

Astronomy

May. 17, 2013 Rise Set
Actual Time 5:46 AM CDT 8:54 PM CDT
Civil Twilight 5:09 AM CDT 9:30 PM CDT
Nautical Twilight 4:23 AM CDT 10:18 PM CDT
Astronomical Twilight 3:25 AM CDT 11:16 PM CDT
Moon 12:30 PM CDT (5/17) 1:37 AM CDT (5/17)
Length of Visible Light 16h 21m
Length of Day
15h 08m
Waxing Crescent, 45% of the Moon is Illuminated
May 17
Waxing Crescent
May 17
First Quarter
May 24
Full
May 31
Last Quarter
Jun 8
New

Hourly Weather History & Observations

Time (CDT) Temp. Dew Point Humidity Pressure Visibility Wind Dir Wind Speed Gust Speed Precip Events Conditions
12:15 AM 64.4 °F 37.4 °F 37% 29.92 in 10.0 mi ENE 6.9 mph - N/A   Clear
12:36 AM 62.6 °F 35.6 °F 37% 29.92 in 10.0 mi East 5.8 mph - N/A   Clear
12:55 AM 62.6 °F 35.6 °F 37% 29.92 in 10.0 mi East 4.6 mph - N/A   Clear
1:15 AM 62.6 °F 35.6 °F 37% 29.93 in 10.0 mi East 5.8 mph - N/A   Clear
1:36 AM 62.6 °F 35.6 °F 37% 29.93 in 10.0 mi ESE 4.6 mph - N/A   Clear
1:55 AM 62.6 °F 33.8 °F 34% 29.94 in 10.0 mi East 4.6 mph - N/A   Clear
2:15 AM 62.6 °F 33.8 °F 34% 29.94 in 10.0 mi ESE 6.9 mph - N/A   Scattered Clouds
2:36 AM 62.6 °F 33.8 °F 34% 29.94 in 10.0 mi ESE 8.1 mph - N/A   Clear
2:55 AM 62.6 °F 33.8 °F 34% 29.94 in 10.0 mi ESE 8.1 mph - N/A   Clear
3:15 AM 62.6 °F 33.8 °F 34% 29.94 in 10.0 mi East 9.2 mph - N/A   Scattered Clouds
3:35 AM 62.6 °F 32.0 °F 32% 29.94 in 10.0 mi ESE 9.2 mph - N/A   Scattered Clouds
3:55 AM 60.8 °F 32.0 °F 34% 29.94 in 10.0 mi ESE 10.4 mph - N/A   Clear
4:16 AM 60.8 °F 32.0 °F 34% 29.94 in 10.0 mi East 8.1 mph - N/A   Clear
4:35 AM 60.8 °F 32.0 °F 34% 29.93 in 10.0 mi East 6.9 mph - N/A   Clear
4:55 AM 59.0 °F 32.0 °F 36% 29.93 in 10.0 mi ESE 5.8 mph - N/A   Clear
5:16 AM 59.0 °F 32.0 °F 36% 29.93 in 10.0 mi East 5.8 mph - N/A   Clear
5:35 AM 59.0 °F 32.0 °F 36% 29.93 in 10.0 mi East 6.9 mph - N/A   Clear
5:55 AM 57.2 °F 32.0 °F 38% 29.94 in 10.0 mi ESE 6.9 mph - N/A   Clear
6:16 AM 57.2 °F 32.0 °F 38% 29.95 in 10.0 mi ESE 8.1 mph - N/A   Clear
6:35 AM 57.2 °F 30.2 °F 36% 29.95 in 10.0 mi ESE 9.2 mph - N/A   Clear
7:16 AM 57.2 °F 32.0 °F 38% 29.95 in 10.0 mi ESE 13.8 mph 20.7 mph N/A   Clear
7:35 AM 59.0 °F 32.0 °F 36% 29.96 in 10.0 mi SE 13.8 mph - N/A   Clear
7:55 AM 59.0 °F 32.0 °F 36% 29.96 in 10.0 mi ESE 13.8 mph 19.6 mph N/A   Clear
8:15 AM 59.0 °F 32.0 °F 36% 29.97 in 10.0 mi ESE 16.1 mph - N/A   Clear
8:35 AM 59.0 °F 33.8 °F 39% 29.97 in 10.0 mi SE 16.1 mph 23.0 mph N/A   Clear
8:56 AM 60.8 °F 35.6 °F 39% 29.96 in 10.0 mi SE 15.0 mph 24.2 mph N/A   Clear
9:15 AM 60.8 °F 37.4 °F 42% 29.96 in 10.0 mi SE 15.0 mph 21.9 mph N/A   Clear
9:36 AM 60.8 °F 37.4 °F 42% 29.96 in 10.0 mi SE 15.0 mph - N/A   Clear
9:55 AM 62.6 °F 41.0 °F 45% 29.95 in 10.0 mi SE 18.4 mph 24.2 mph N/A   Clear
10:15 AM 62.6 °F 42.8 °F 48% 29.95 in 10.0 mi SE 19.6 mph 24.2 mph N/A   Clear
10:36 AM 62.6 °F 42.8 °F 48% 29.95 in 10.0 mi SE 11.5 mph 21.9 mph N/A   Clear
10:55 AM 62.6 °F 44.6 °F 52% 29.95 in 10.0 mi SE 13.8 mph - N/A   Clear
11:15 AM 64.4 °F 46.4 °F 52% 29.95 in 10.0 mi SSE 15.0 mph - N/A   Clear
11:36 AM 64.4 °F 46.4 °F 52% 29.95 in 10.0 mi SE 17.3 mph 20.7 mph N/A   Clear
11:55 AM 64.4 °F 46.4 °F 52% 29.95 in 10.0 mi SSE 17.3 mph 21.9 mph N/A   Clear
12:15 PM 66.2 °F 46.4 °F 49% 29.95 in 10.0 mi SE 17.3 mph 23.0 mph N/A   Clear
12:36 PM 68.0 °F 48.2 °F 49% 29.94 in 10.0 mi SSE 13.8 mph 20.7 mph N/A   Clear
12:55 PM 68.0 °F 48.2 °F 49% 29.93 in 10.0 mi SSE 16.1 mph 19.6 mph N/A   Clear
1:15 PM 68.0 °F 46.4 °F 46% 29.93 in 10.0 mi SE 13.8 mph - N/A   Clear
1:36 PM 69.8 °F 50.0 °F 49% 29.93 in 10.0 mi SSE 16.1 mph 21.9 mph N/A   Clear
2:15 PM 69.8 °F 48.2 °F 46% 29.93 in 10.0 mi SSE 17.3 mph - N/A   Clear
2:36 PM 69.8 °F 50.0 °F 49% 29.92 in 10.0 mi SSE 18.4 mph 25.3 mph N/A   Clear
2:55 PM 69.8 °F 48.2 °F 46% 29.93 in 10.0 mi SE 16.1 mph 23.0 mph N/A   Clear
3:15 PM 69.8 °F 46.4 °F 43% 29.93 in 10.0 mi SE 18.4 mph 23.0 mph N/A   Scattered Clouds
3:36 PM 69.8 °F 46.4 °F 43% 29.92 in 10.0 mi SE 13.8 mph 20.7 mph N/A   Scattered Clouds
3:55 PM 69.8 °F 48.2 °F 46% 29.92 in 10.0 mi SE 11.5 mph - N/A   Overcast
4:15 PM 68.0 °F 50.0 °F 52% 29.91 in 10.0 mi SSE 16.1 mph - N/A   Overcast
4:36 PM 69.8 °F 50.0 °F 49% 29.91 in 10.0 mi SE 18.4 mph 24.2 mph N/A   Mostly Cloudy
4:55 PM 68.0 °F 51.8 °F 56% 29.91 in 10.0 mi SE 15.0 mph 23.0 mph N/A   Mostly Cloudy
5:15 PM 68.0 °F 51.8 °F 56% 29.92 in 10.0 mi SE 16.1 mph - N/A   Overcast
5:36 PM 66.2 °F 51.8 °F 60% 29.92 in 10.0 mi SE 15.0 mph - N/A   Overcast
5:55 PM 64.4 °F 51.8 °F 64% 29.92 in 10.0 mi SE 13.8 mph - N/A   Overcast
6:15 PM 64.4 °F 51.8 °F 64% 29.92 in 10.0 mi SE 16.1 mph - N/A   Overcast
6:36 PM 64.4 °F 51.8 °F 64% 29.93 in 10.0 mi SE 15.0 mph - N/A   Overcast
6:55 PM 62.6 °F 51.8 °F 68% 29.93 in 10.0 mi SE 13.8 mph - N/A   Mostly Cloudy
7:15 PM 62.6 °F 51.8 °F 68% 29.92 in 10.0 mi SE 15.0 mph - N/A   Mostly Cloudy
7:35 PM 62.6 °F 51.8 °F 68% 29.92 in 10.0 mi SE 13.8 mph 18.4 mph N/A   Overcast
7:55 PM 62.6 °F 51.8 °F 68% 29.91 in 10.0 mi SE 12.7 mph - N/A   Mostly Cloudy
8:16 PM 62.6 °F 53.6 °F 72% 29.91 in 10.0 mi SE 16.1 mph - N/A   Mostly Cloudy
8:35 PM 60.8 °F 51.8 °F 72% 29.91 in 10.0 mi SE 11.5 mph 21.9 mph N/A   Mostly Cloudy
8:55 PM 60.8 °F 51.8 °F 72% 29.91 in 10.0 mi SE 10.4 mph 19.6 mph N/A   Overcast
9:16 PM 60.8 °F 51.8 °F 72% 29.91 in 10.0 mi SE 13.8 mph 19.6 mph N/A   Overcast
9:35 PM 60.8 °F 51.8 °F 72% 29.92 in 10.0 mi SE 17.3 mph - N/A   Mostly Cloudy
9:55 PM 60.8 °F 51.8 °F 72% 29.92 in 10.0 mi SE 18.4 mph - N/A   Overcast
10:16 PM 60.8 °F 51.8 °F 72% 29.93 in 10.0 mi SE 16.1 mph - N/A   Mostly Cloudy
10:35 PM 59.0 °F 51.8 °F 77% 29.93 in 10.0 mi SE 17.3 mph 24.2 mph N/A   Mostly Cloudy
10:55 PM 59.0 °F 51.8 °F 77% 29.93 in 10.0 mi SE 13.8 mph 23.0 mph N/A   Mostly Cloudy
11:16 PM 59.0 °F 51.8 °F 77% 29.93 in 10.0 mi SE 10.4 mph 19.6 mph N/A   Overcast
11:35 PM 59.0 °F 51.8 °F 77% 29.92 in 10.0 mi SE 11.5 mph - N/A   Overcast
11:55 PM 59.0 °F 53.6 °F 82% 29.92 in 10.0 mi SE 12.7 mph 23.0 mph N/A   Overcast